Nederland, TX

8:31 AM CST on February 12, 2016 (GMT -0600)
Southeast Texas Regional

Weather History for KBPT - February, 2012

Change the Weather History Date:

Thursday, February 16, 2012

  Actual Average Record
Temperature  
Mean Temperature 64 °F 56 °F  
Max Temperature 69 °F 65 °F 80 °F (2005)
Min Temperature 58 °F 47 °F 25 °F (2007)
Degree Days  
Heating Degree Days 1 9  
Month to date heating degree days 128 171  
Since 1 July heating degree days 765 1114  
Cooling Degree Days 0 0  
Month to date cooling degree days 13 6  
Year to date cooling degree days 61 17  
Growing Degree Days 13 (Base 50)    
Moisture  
Dew Point 60 °F    
Average Humidity 87    
Maximum Humidity 100    
Minimum Humidity 73    
Precipitation  
Precipitation 0.00 in 0.13 in 1.13 in (1903)
Month to date precipitation 4.89 2.12  
Year to date precipitation 11.16 7.38  
Snow  
Snow 0.00 in 0.00 in 0.00 in ()
Month to date snowfall 0.0 0.0  
Since 1 July snowfall 0.0 T  
Snow Depth 0.00 in    
Sea Level Pressure  
Sea Level Pressure 30.09 in    
Wind  
Wind Speed 7 mph (North)    
Max Wind Speed 13 mph    
Max Gust Speed 16 mph    
Visibility 5 miles    
Events Fog    
T = Trace of Precipitation, MM = Missing Value Source: NWS Daily Summary

Daily Weather History Graph

Daily Weather History Graph

Search for Another Location

Airport or City:

Trip Planner

Search our weather history database for the weather conditions in past years. The results will help you decide how hot, cold, wet, or windy it might be!

Date:

Astronomy

Feb. 16, 2012 Rise Set
Actual Time 6:55 AM CST 6:05 PM CST
Civil Twilight 6:30 AM CST 6:29 PM CST
Nautical Twilight 6:02 AM CST 6:57 PM CST
Astronomical Twilight 5:35 AM CST 7:25 PM CST
Moon 2:37 AM CST (2/16) 1:11 PM CST (2/16)
Length of Visible Light 11h 58m
Length of Day
11h 09m
Waning Crescent, 28% of the Moon is Illuminated
Feb 16
Waning Crescent
Feb 21
New
Feb 29
First Quarter
Mar 8
Full
Mar 14
Last Quarter

Hourly Weather History & Observations

Time (CST) Temp. Dew Point Humidity Pressure Visibility Wind Dir Wind Speed Gust Speed Precip Events Conditions
12:02 AM 66.2 °F 64.4 °F 94% 30.03 in 1.5 mi NW 4.6 mph - N/A   Overcast
12:05 AM 66.2 °F 64.4 °F 94% 30.03 in 0.8 mi NW 5.8 mph - N/A   Overcast
12:12 AM 64.4 °F 64.4 °F 100% 30.03 in 0.2 mi NW 4.6 mph - N/A Fog Fog
12:53 AM 64.0 °F 62.1 °F 93% 30.03 in 0.2 mi NNW 3.5 mph - N/A Fog Fog
1:13 AM 62.6 °F 62.6 °F 100% 30.04 in 0.2 mi North 3.5 mph - N/A Fog Fog
1:45 AM 64.4 °F 62.6 °F 94% 30.04 in 0.5 mi North 5.8 mph - N/A Fog Fog
1:49 AM 64.4 °F 62.6 °F 94% 30.04 in 0.2 mi North 3.5 mph - N/A Fog Fog
1:53 AM 64.9 °F 63.0 °F 93% 30.04 in 0.2 mi North 3.5 mph - N/A Fog Fog
2:53 AM 64.0 °F 62.1 °F 93% 30.04 in 0.2 mi North 3.5 mph - N/A Fog Fog
3:53 AM 62.1 °F 61.0 °F 96% 30.04 in 0.2 mi North 3.5 mph - N/A Fog Fog
4:37 AM 60.8 °F 59.0 °F 94% 30.04 in 0.5 mi North 3.5 mph - N/A Fog Fog
4:53 AM 59.0 °F 57.9 °F 96% 30.05 in 0.5 mi Calm Calm - N/A Fog Fog
5:14 AM 59.0 °F 57.2 °F 94% 30.05 in 0.2 mi NNE 3.5 mph - N/A Fog Fog
5:30 AM 59.0 °F 57.2 °F 94% 30.06 in 0.5 mi NNE 3.5 mph - N/A Fog Fog
5:53 AM 57.9 °F 55.9 °F 93% 30.07 in 0.5 mi North 4.6 mph - N/A Fog Fog
6:28 AM 59.0 °F 57.2 °F 94% 30.08 in 0.5 mi North 6.9 mph - N/A Fog Fog
6:33 AM 59.0 °F 57.2 °F 94% 30.08 in 0.2 mi North 6.9 mph - N/A Fog Fog
6:53 AM 59.0 °F 57.9 °F 96% 30.09 in 0.2 mi North 6.9 mph - N/A Fog Fog
7:00 AM 59.0 °F 57.2 °F 94% 30.09 in 0.2 mi NNE 5.8 mph - N/A Fog Fog
7:53 AM 60.1 °F 57.9 °F 93% 30.11 in 0.2 mi North 6.9 mph - N/A Fog Fog
8:27 AM 60.8 °F 59.0 °F 94% 30.12 in 0.8 mi NE 8.1 mph - N/A   Mist
8:30 AM 60.8 °F 59.0 °F 94% 30.13 in 1.5 mi NNE 6.9 mph - N/A   Overcast
8:34 AM 60.8 °F 60.8 °F 100% 30.13 in 3.0 mi NNE 6.9 mph - N/A   Overcast
8:53 AM 61.0 °F 60.1 °F 97% 30.14 in 9.0 mi North 6.9 mph - N/A   Overcast
9:53 AM 64.0 °F 61.0 °F 90% 30.15 in 10.0 mi NNE 8.1 mph - N/A   Overcast
10:06 AM 64.4 °F 60.8 °F 88% 30.16 in 10.0 mi North 4.6 mph - N/A   Mostly Cloudy
10:29 AM 66.2 °F 60.8 °F 83% 30.16 in 10.0 mi NNE 8.1 mph - N/A   Scattered Clouds
10:53 AM 66.0 °F 60.1 °F 81% 30.16 in 10.0 mi NNE 12.7 mph - N/A   Scattered Clouds
11:32 AM 66.2 °F 60.8 °F 83% 30.15 in 10.0 mi NNE 12.7 mph - N/A   Mostly Cloudy
11:53 AM 66.9 °F 60.1 °F 79% 30.15 in 10.0 mi NNE 10.4 mph - N/A   Mostly Cloudy
12:53 PM 69.1 °F 61.0 °F 75% 30.12 in 10.0 mi NNE 8.1 mph - N/A   Scattered Clouds
1:53 PM 69.1 °F 60.1 °F 73% 30.11 in 10.0 mi North 6.9 mph - N/A   Clear
2:53 PM 68.0 °F 60.8 °F 78% 30.08 in 10.0 mi North 9.2 mph - N/A   Clear
3:53 PM 66.9 °F 59.0 °F 76% 30.08 in 10.0 mi NNE 9.2 mph - N/A   Clear
4:53 PM 66.2 °F 59.0 °F 78% 30.08 in 10.0 mi NNE 10.4 mph - N/A   Clear
5:53 PM 64.9 °F 59.0 °F 81% 30.08 in 9.0 mi NNE 9.2 mph - N/A   Clear
6:53 PM 63.0 °F 59.0 °F 87% 30.09 in 10.0 mi NNE 9.2 mph - N/A   Clear
7:53 PM 63.0 °F 57.9 °F 84% 30.09 in 10.0 mi NNE 8.1 mph - N/A   Clear
8:53 PM 62.1 °F 57.9 °F 86% 30.12 in 10.0 mi North 4.6 mph - N/A   Clear
9:53 PM 62.1 °F 57.0 °F 84% 30.11 in 10.0 mi NE 4.6 mph - N/A   Clear
10:53 PM 62.1 °F 55.9 °F 80% 30.07 in 10.0 mi NE 9.2 mph - N/A   Clear
11:53 PM 60.1 °F 55.9 °F 86% 30.09 in 10.0 mi NNE 5.8 mph - N/A   Partly Cloudy